     2              OBSERVATION DATA    GPS                 RINEX VERSION / TYPE
teqc 1997Sep10 19970910 18:57:59UTC                         PGM / RUN BY / DATE
                                                            COMMENT
BIT 2 OF LLI FLAGS DATA COLLECTED UNDER A-S CONDITION       COMMENT
BIT 2 OF LLI FLAGS DATA COLLECTED UNDER A-S CONDITION       COMMENT
Original Marker Name: unknown                               COMMENT
Campaign Name: Southern California GPS Survey March - A     COMMENT
4-Character Station Name: ANZA                              COMMENT
6-Character Antenna Code: TI4100                            COMMENT
Vertical Measurement Point: PAE                             COMMENT
Vertical Offset to Rinex Ref. Point: 0.0000                 COMMENT
Radial Measurement Point: RRP                               COMMENT
Radial Offset to Rinex Ref. Point: 0.0000                   COMMENT
Antenna Height from Field Measurement: 1.5492 m             COMMENT
Original XYZ: 0.0000 0.0000 0.0000                          COMMENT
New XYZ position is based on association with SCEC monument COMMENT
E1D0K4B7+0011. Position of that monument is believed to be  COMMENT
valid to within 1 m horizontally; vertical accuracy         COMMENT
should be no worse than 3-times this value.                 COMMENT
                                                            COMMENT
Revised Rinex header created by UCSD GPS archive for        COMMENT
GSAC on 12-Apr-1999 (1999:102) 07:47:49 GMT                 COMMENT
For assistance contact dagnew@ucsd.edu or hjohnson@ucsd.edu COMMENT
                                                            COMMENT
ANZA                                                        MARKER NAME
unknown NATIONAL GEODETIC SURVEY                            OBSERVER / AGENCY
UNKNOWN TI 4100 GSI TI4100                                  REC # / TYPE / VERS
UNKNOWN TI 4100                                             ANT # / TYPE
 -2387933.0000 -4755765.0000  3506156.0000                  APPROX POSITION XYZ
        1.5492        0.0000        0.0000                  ANTENNA: DELTA H/E/N
     1     1     0                                          WAVELENGTH FACT L1/2
     6    L1    L2    P1    P2    D1    D2                  # / TYPES OF OBSERV
     0                                                      INTERVAL
  1988     3    26     4    12   50.000000                  TIME OF FIRST OBS
  1988     3    26     8    15   44.000000                  TIME OF LAST OBS
     0                                                      # OF SATELLITES
                                                            END OF HEADER
 88  3 26  4 12 49.9400000  0  3G 6G 9G11
    243537.298 9                                                       413.630
     48002.831
    144179.787 9    -46779.353 9  20666468.946    20666473.095        2709.088
      2106.417
   4821614.907 8  -7092641.286 8  19770367.671    19770372.118        1180.532
       914.066
 88  3 26  4 26 44.0800000  0  3G 6G 9G11
     83822.607 9   -118480.898 8  19312391.808    19312394.936         -38.325
       -39.669
  -2030291.671 9  -1741172.438 8  20252681.064    20252683.218        2484.778
      1934.183
   4054372.319 9  -7690491.857 7  19624366.077    19624368.646         656.760
       507.803
 88  3 26  4 27 14.0800000  0  3G 6G 9G11
     85071.734 8   -117507.535 8  19312629.997    19312632.678         -63.029
       -41.378
  -2104836.447 9  -1799259.263 9  20238495.573    20238498.537        2496.922
      1930.641
   4034553.026 8  -7705935.422 8  19620594.581    19620598.172         656.904
       534.243
 88  3 26  4 27 44.0800000  0  3G 6G 9G11
     86822.230 4   -116143.526 8  19312962.575    19312965.717         -66.937
       -49.990
  -2179099.840 9  -1857126.790 8  20224365.083    20224366.232        2460.360
      1927.845
   4015270.864 9  -7720960.476 8  19616925.456    19616929.472         626.928
       490.379
 88  3 26  4 28 14.0800000  0  3G 6G 9G11
     89075.474 9   -114387.762 8  19313392.442    19313393.809         -76.976
       -55.613
  -2253078.778 9  -1914772.727 8  20210285.435    20210287.849        2466.564
      1906.600
   3996525.757 8  -7735567.026 8  19613358.366    19613359.902         616.665
       498.321
 88  3 26  4 28 44.0800000  0  3G 6G 9G11
     91832.858 9   -112239.169 9  19313917.042    19313919.588        -107.175
       -78.778
  -2326770.783 8  -1972195.014 9  20196263.641    20196266.583        2461.261
      1904.705
   3978317.179 8  -7749755.514 7  19609892.816    19609897.249         603.659
       465.568
 88  3 26  4 29 14.0800000  0  4G 6G 9G11G13
     95095.853 9   -109696.555 9  19314537.904    19314539.128        -123.929
       -80.910
  -2400172.762 9  -2029391.364 8  20182295.596    20182295.846        2446.230
      1898.678
   3960644.377 8  -7763526.495 9  19606529.825    19606533.924         590.118
       429.758
  -5888017.627 1   7479464.000 1                                      3351.423

 88  3 26  4 29 44.0800000  0  4G 6G 9G11G13
     98865.600 1   -106759.096 3  19315251.506    19315260.528        -163.227
       -91.591
  -2473282.191 9  -2086359.750 8  20168382.530    20168385.006        2432.426
      1900.573
   3943506.960 8  -7776880.305 8  19603268.986    19603271.744         562.583
       441.850
  -6080562.649 1   7707464.000 1                                         1.962

 88  3 26  4 30 14.0800000  0  4G 6G 9G11G13
    103143.827 8   -103425.399 8  19316069.414    19316071.613        -160.651
      -116.428
  -2546096.304 9  -2143098.023 8  20154527.229    20154529.253        2428.056
      1897.348
   3926904.603 9  -7789817.171 8  19600109.124    19600113.344         538.500
       436.841
  -6240433.905 1   7935464.000 1                                      3345.434

 88  3 26  4 30 44.0800000  0  4G 6G 9G11G13
    107931.247 9    -99694.941 8  19316980.237    19316981.708        -171.839
      -134.765
  -2618612.482 9  -2199604.106 8  20140727.882    20140730.207        2401.454
      1888.332
   3910836.167 7  -7802338.001 8  19597053.138    19597054.526         526.100
       403.703
  -6380861.255 1   8163464.000 1                                      3246.743

 88  3 26  4 31 14.0800000  0  4G 6G 9G11G13
    113229.676 9    -95566.326 8  19317988.088    19317990.170        -184.359
      -148.770
  -2690827.779 9  -2255875.781 8  20126984.546    20126987.623        2409.197
      1873.431
   3895301.459 9  -7814442.945 8  19594094.525    19594099.118         509.705
       396.396
  -6479573.818 1   8215397.401 1  21867529.156    21867536.061        3285.586
      2552.647
 88  3 26  4 31 44.0800000  0  4G 6G 9G11G13
    119040.453 9    -91038.454 8  19319094.181    19319096.720        -203.896
      -146.844
  -2762739.001 9  -2311910.447 8  20113301.545    20113303.895        2383.894
      1866.242
   3880300.077 8  -7826132.315 7  19591240.362    19591244.283         477.449
       383.707
  -6577963.368 9   8138730.262 9  21848806.486    21848812.930        3273.856
      2561.664
 88  3 26  4 32 14.0800000  0  4G 6G 9G11G13
    125364.893 7    -86110.312 8  19320296.754    19320299.211        -233.154
      -178.236
  -2834343.581 5  -2367706.238 6  20099675.604    20099676.025        2386.151
      1850.813
   3865831.346 9  -7837406.625 8  19588487.983    19588490.743         471.404
       364.855
  -6676029.385 9   8062315.221 8  21830144.740    21830152.385        3266.065
      2551.871
 88  3 26  4 32 44.0800000  0  4G 6G 9G11G13
    132204.228 9    -80780.965 8  19321599.546    19321601.227        -231.886
      -193.684
  -2905638.785 9  -2423260.918 8  20086107.285    20086110.153        2365.266
      1849.757
   3851894.207 9  -7848266.714 7  19585834.249    19585839.270         463.916
       359.791
  -6773769.142 9   7986154.420 8  21811545.587    21811551.515        3249.104
      2542.705
 88  3 26  4 33 14.0800000  0  4G 6G 9G11G13
    139559.444 8    -75049.650 8  19322998.894    19323002.135        -255.690
      -197.561
  -2976622.122 9  -2478572.604 8  20072601.337    20072602.813        2364.955
      1841.952
   3838488.069 9  -7858713.037 8  19583284.382    19583288.365         451.859
       356.988
  -6871181.092 9   7910249.043 8  21793009.148    21793014.229        3252.939
      2515.582
 88  3 26  4 33 44.0800000  0  4G 6G 9G11G13
    147431.818 9    -68915.337 8  19324496.788    19324499.879        -256.120
      -201.594
  -3047290.501 9  -2533638.866 8  20059152.041    20059155.127        2358.472
      1830.773
   3825612.055 8  -7868746.273 8  19580833.476    19580838.793         407.522
       323.483
  -6968263.450 9   7834600.515 7  21774535.897    21774540.200        3232.661
      2527.040
 88  3 26  4 34 14.0800000  0  4G 6G 9G11G13
    155822.686 9    -62376.990 8  19326094.917    19326095.169        -281.367
      -216.209
  -3117641.117 9  -2588457.475 9  20045764.618    20045767.995        2346.757
      1811.424
   3813265.680 8  -7878366.800 7  19578484.436    19578488.486         399.906
       302.170
  -7065014.387 9   7759210.242 8  21756123.230    21756129.490        3218.235
      2497.457
 88  3 26  4 34 44.0800000  0  4G 6G 9G11G13
    164733.603 9    -55433.408 8  19327789.659    19327791.308        -300.442
      -231.526
  -3187670.875 9  -2643026.108 8  20032439.242    20032440.714        2339.054
      1810.809
   3801448.677 8  -7887574.824 7  19576234.533    19576240.711         382.323
       282.385
  -7161431.436 9   7684080.152 7  21737777.309    21737780.304        3208.793
      2508.486
 88  3 26  4 35 14.0800000  0  4G 6G 9G11G13
    174165.814 9    -48083.654 8  19329584.544    19329586.757        -338.033
      -246.563
  -3257376.699 9  -2697342.341 9  20019174.773    20019177.661        2324.023
      1811.567
   3790160.325 7  -7896370.923 8  19574086.209    19574090.244         364.755
       275.084
  -7257512.581 9   7609211.798 7  21719492.015    21719496.246        3212.198
      2486.495
 88  3 26  4 35 44.0800000  0  4G 6G 9G11G13
    184120.545 9    -40326.723 9  19331479.281    19331482.105        -324.875
      -269.660
  -3326756.024 8  -2751404.097 8  20005971.145    20005974.392        2302.731
      1786.519
   3779399.774 9  -7904755.743 7  19572040.430    19572042.783         359.931
       273.730
  -7353256.005 9   7534606.589 7  21701273.540    21701277.864        3188.307
      2487.546
 88  3 26  4 36 14.0800000  0  4G 6G 9G11G13
    194599.091 7    -32161.645 8  19333472.022    19333476.065        -374.292
      -276.830
  -3395805.636 9  -2805208.992 9  19992833.859    19992835.039        2303.608
      1784.785
   3769166.457 4  -7912729.733 3  19570091.562    19570098.823         322.076
       280.354
  -7448659.651 9   7460266.144 8  21683117.471    21683123.110        3179.264
      2464.492
 88  3 26  4 36 44.0800000  0  4G 6G 9G11G13
    205602.318 9    -23587.705 7  19335565.613    19335567.588        -375.664
      -291.221
  -3464523.068 9  -2858755.020 8  19979754.481    19979757.852        2280.323
      1796.915
   3759459.816 9  -7920293.328 8  19568245.519    19568248.833         327.571
       247.104
  -7543721.672 9   7386191.903 8  21665028.050    21665032.999        3150.118
      2477.262
 88  3 26  4 37 14.0800000  0  4G 6G 9G11G13
    217131.598 9    -14603.854 8  19337760.147    19337760.912        -401.214
      -302.145
  -3532905.207 9  -2912039.781 8  19966744.235    19966745.957        2276.049
      1780.100
   3750278.861 9  -7927447.295 8  19566499.021    19566502.546         301.463
       222.460
  -7638439.860 9   7312385.559 9  21647003.324    21647010.363        3164.073
      2455.936
 88  3 26  4 37 44.0800000  0  4G 6G 9G11G13
    229187.791 9     -5209.420 8  19340055.975    19340056.560        -420.225
      -310.136
  -3600949.315 9  -2965061.159 9  19953795.152    19953797.064        2262.652
      1759.160
   3741622.250 9  -7934192.675 8  19564850.936    19564854.007         270.387
       234.235
  -7732812.883 9   7238848.182 9  21629045.692    21629050.957        3149.336
      2447.989
 88  3 26  4 38 14.0800000  0  4G 6G 9G11G13
    241772.173 9      4596.596 9  19342450.833    19342453.611        -430.607
      -337.359
  -3668652.655 9  -3017817.012 8  19940909.914    19940913.863        2249.805
      1761.086
   3733489.447 8  -7940529.909 8  19563304.801    19563308.058         267.420
       220.838
  -7826838.848 9   7165581.258 8  21611154.970    21611158.699        3128.874
      2426.930
 88  3 26  4 38 44.0800000  0  4G 6G 9G11G13
    254885.857 9     14815.022 9  19344944.465    19344946.176        -437.752
      -352.421
  -3736012.108 9  -3070304.884 9  19928093.109    19928096.419        2243.601
      1743.787
   3725879.650 9  -7946459.588 8  19561854.953    19561858.883         241.272
       194.193
  -7920515.796 9   7092586.270 8  21593328.085    21593332.225        3120.477
      2437.599
 88  3 26  4 39 14.0800000  0  4G 6G 9G11G13
    268529.794 9     25446.645 8  19347540.870    19347543.387        -474.586
      -368.285
  -3803024.818 9  -3122522.565 9  19915342.058    19915342.926        2227.764
      1736.119
   3718792.176 9  -7951982.283 7  19560506.389    19560508.952         238.058
       177.248
  -8013841.909 9   7019864.699 8  21575568.410    21575573.454        3113.221
      2418.225
 88  3 26  4 39 44.0800000  0  4G 6G 9G11G13
    282704.960 8     36492.225 8  19350237.888    19350240.536        -461.348
      -364.383
  -3869688.071 9  -3174467.931 8  19902654.657    19902658.755        2222.684
      1719.727
   3712225.905 8  -7957098.833 7  19559257.894    19559259.433         207.118
       164.237
  -8106815.815 9   6947417.543 8  21557875.068    21557879.593        3106.060
      2412.073
